Volver al catálogo

DELTA 1 R/B

ActivoUNKNOWN
NORAD 341·ROCKET BODY·🇺🇸 United States

Lanzado Jul 10, 1962 desde Cape Canaveral Space Force Station

Loading…

Próximos Pases (próximas 24 horas)

TLE

ActualizadoSource: Space-Track

Época: Sep 14, 2026, 11:23 UTC

1 00341U 62029B   26257.47435721 -.00000107  00000-0 -44959-3 0  9996
2 00341  44.7930  48.6990 2420906  79.2278 335.7166  9.14329056143302

Sigue DELTA 1 R/B en tiempo real con AllMySat

Download on the App Store